Bartlesville, OK

6:08 PM CST on February 25, 2017 (GMT -0600)
Bartlesville Municipal

Weather History for KBVO - October, 2011

Change the Weather History Date:

Tuesday, October 4, 2011

  Actual Average Record
Temperature  
Mean Temperature 65 °F -  
Max Temperature 87 °F 81 °F 95 °F (1954)
Min Temperature 46 °F 52 °F 31 °F (1968)
Growing Degree Days 15 (Base 50)    
Moisture  
Dew Point 45 °F    
Average Humidity 63    
Maximum Humidity 97    
Minimum Humidity 22    
Precipitation  
Precipitation 0.00 in - - ()
Sea Level Pressure  
Sea Level Pressure 30.16 in    
Wind  
Wind Speed 3 mph (SSE)    
Max Wind Speed 15 mph    
Max Gust Speed 18 mph    
Visibility 10 miles    
Events      
Averages and records for this station are not official NWS values.
T = Trace of Precipitation, MM = Missing Value Source: NWS Daily Summary

Daily Weather History Graph

Daily Weather History Graph

Search for Another Location

Airport or City:

Trip Planner

Search our weather history database for the weather conditions in past years. The results will help you decide how hot, cold, wet, or windy it might be!

Date:

Astronomy

Oct. 04, 2011 Rise Set
Actual Time 7:21 AM CDT 7:03 PM CDT
Civil Twilight 6:55 AM CDT 7:29 PM CDT
Nautical Twilight 6:25 AM CDT 7:59 PM CDT
Astronomical Twilight 5:55 AM CDT 8:29 PM CDT
Moon 2:56 PM CDT (10/4) 12:16 AM CDT (10/4)
Length of Visible Light 12h 33m
Length of Day
11h 41m
First Quarter, 56% of the Moon is Illuminated
Oct 4
First Quarter
Oct 11
Full
Oct 19
Last Quarter
Oct 26
New
Nov 2
First Quarter

Hourly Weather History & Observations

Time (CDT) Temp. Dew Point Humidity Pressure Visibility Wind Dir Wind Speed Gust Speed Precip Events Conditions
12:53 AM 51.1 °F 46.9 °F 86% 30.14 in 10.0 mi Calm Calm - N/A   Clear
1:53 AM 50.0 °F 46.9 °F 89% 30.16 in 10.0 mi Calm Calm - N/A   Clear
2:53 AM 48.9 °F 46.0 °F 90% 30.16 in 10.0 mi Calm Calm - N/A   Clear
3:53 AM 48.0 °F 46.0 °F 93% 30.16 in 10.0 mi Calm Calm - N/A   Clear
4:53 AM 46.9 °F 46.0 °F 97% 30.17 in 10.0 mi Calm Calm - N/A   Clear
6:53 AM 46.0 °F 44.1 °F 93% 30.20 in 10.0 mi Calm Calm - N/A   Clear
7:53 AM 48.0 °F 45.0 °F 89% 30.22 in 10.0 mi Calm Calm - N/A   Clear
8:53 AM 57.0 °F 50.0 °F 77% 30.24 in 10.0 mi Calm Calm - N/A   Clear
9:53 AM 66.9 °F 46.9 °F 49% 30.24 in 10.0 mi SSE 5.8 mph - N/A   Clear
11:53 AM 80.1 °F 43.0 °F 27% 30.21 in 10.0 mi South 10.4 mph 17.3 mph N/A   Clear
1:53 PM 84.9 °F 45.0 °F 25% 30.16 in 10.0 mi SSE 9.2 mph - N/A   Clear
2:53 PM 84.9 °F 42.1 °F 22% 30.13 in 10.0 mi SE 13.8 mph - N/A   Clear
3:53 PM 84.9 °F 43.0 °F 23% 30.12 in 10.0 mi SE 15.0 mph 18.4 mph N/A   Clear
4:53 PM 84.0 °F 45.0 °F 25% 30.11 in 10.0 mi SSE 9.2 mph - N/A   Clear
5:53 PM 81.0 °F 42.1 °F 25% 30.11 in 10.0 mi SSE 11.5 mph - N/A   Clear
6:53 PM 75.0 °F 43.0 °F 32% 30.11 in 10.0 mi SE 5.8 mph - N/A   Clear
7:53 PM 60.1 °F 46.0 °F 60% 30.12 in 10.0 mi Calm Calm - N/A   Clear
8:53 PM 55.0 °F 46.0 °F 72% 30.13 in 10.0 mi Calm Calm - N/A   Clear
9:53 PM 52.0 °F 46.0 °F 80% 30.13 in 10.0 mi Calm Calm - N/A   Clear
10:53 PM 51.1 °F 45.0 °F 80% 30.12 in 10.0 mi Calm Calm - N/A   Clear
11:53 PM 48.9 °F 44.1 °F 83% 30.13 in 10.0 mi Calm Calm - N/A   Clear